Location: Petruro
(41.0333°N, 14.7833°E)
Time: 08:36:27
(UTC+00:00)

S3M - Pass Details

Date: 20 June 2021
Orbit: 950 x 1003 km, 83.0° (Epoch: 03 August)

Event Time Altitude Azimuth Distance (km) Brightness Sun altitude
Rises 02:09:52 0° 349° (NNW) 3,642 7.5 -12.2°
Reaches altitude 10° 02:12:23 10° 346° (NNW) 2,697 6.8 -11.9°
Maximum altitude 02:18:27 62° 267° (W) 1,083 4.1 -11.1°
Drops below altitude 10° 02:24:33 10° 189° (S) 2,713 5.9 -10.3°
Enters shadow 02:26:12 - 186° (S) 3,329 6.3 -10.1°
